This demonstration page uses our WeatherBlox Daily Observations layout. Learn more.

Left ArrowRight Arrow

Hourly Observations for September 26, 2015

Temp ( °F °C ) Dew Point ( °F °C ) Humidity (%) Winds ( mph kmh ) Pressure ( in mb ) Visibility ( mi km ) Precip ( " mm )
12:53 am 00:53 Clear 68 20 46 7.8 45 45 NNW 3 6 29.84 1011 10 16 0.00 0.00
1:53 am 01:53 Clear 65 18.3 47 8.3 52 52 Calm 29.85 1011 10 16 0.00 0.00
2:53 am 02:53 Clear 64 17.8 46 7.8 52 52 Calm 29.85 1011 10 16 0.00 0.00
3:53 am 03:53 Clear 63 17.2 47 8.3 56 56 Calm 29.86 1011 10 16 0.00 0.00
4:53 am 04:53 Clear 61 16.1 47 8.3 60 60 Calm 29.86 1011 10 16 0.00 0.00
5:53 am 05:53 Clear 59 15 47 8.3 64 64 Calm 29.86 1011 10 16 0.00 0.00
6:53 am 06:53 Clear 59 15 46 7.8 62 62 N 5 7 29.87 1012 10 16 0.00 0.00
7:53 am 07:53 Sunny 63 17.2 48 8.9 58 58 Calm 29.89 1012 10 16 0.00 0.00
8:53 am 08:53 Sunny 71 21.7 47 8.3 42 42 N 3 6 29.89 1012 10 16 0.00 0.00
9:53 am 09:53 Sunny 78 25.6 46 7.8 32 32 VRB 3 6 29.90 1012 10 16 0.00 0.00
10:53 am 10:53 Sunny 83 28.3 45 7.2 26 26 VRB 3 6 29.89 1012 10 16 0.00 0.00
11:53 am 11:53 Sunny 86 30 45 7.2 24 24 Calm 29.87 1012 10 16 0.00 0.00
12:53 pm 12:53 Sunny 89 31.7 44 6.7 21 21 VRB 3 6 29.85 1011 10 16 0.00 0.00
1:53 pm 13:53 Sunny 91 32.8 43 6.1 19 19 S 3 6 29.82 1010 10 16 0.00 0.00
2:53 pm 14:53 Sunny 93 33.9 42 5.6 17 17 S 8 13 29.79 1009 10 16 0.00 0.00
3:53 pm 15:53 Sunny 94 34.4 40 4.4 15 15 SSW 7 11 29.77 1008 10 16 0.00 0.00
4:53 pm 16:53 Sunny 93 33.9 39 3.9 15 15 Calm 29.75 1008 10 16 0.00 0.00
5:53 pm 17:53 Sunny 93 33.9 42 5.6 17 17 SE 5 7 29.75 1007 10 16 0.00 0.00
6:53 pm 18:53 Sunny 88 31.1 39 3.9 18 18 SSE 7 11 29.75 1007 10 16 0.00 0.00
7:53 pm 19:53 Clear 83 28.3 42 5.6 24 24 Calm 29.75 1008 10 16 0.00 0.00
8:53 pm 20:53 Clear 76 24.4 43 6.1 31 31 WNW 3 6 29.77 1008 10 16 0.00 0.00
9:53 pm 21:53 Clear 74 23.3 43 6.1 33 33 Calm 29.78 1008 10 16 0.00 0.00
10:53 pm 22:53 Clear 71 21.7 44 6.7 38 38 Calm 29.78 1009 9 14 0.00 0.00
11:53 pm 23:53 Clear 69 20.6 45 7.2 42 42 N 3 6 29.79 1009 10 16 0.00 0.00

Powered by AerisWeather